541  
ASUS43 KDTX 220301  
RWRMI  
MICHIGAN HOURLY REGIONAL WEATHER ROUNDUP  
NATIONAL WEATHER SERVICE DETROIT/PONTIAC MI  
1100 PM EDT TUE MAY 21 2019  
 
NOTE: "FAIR" INDICATES FEW OR NO CLOUDS BELOW 12,000 FEET WITH NO  
SIGNIFICANT WEATHER AND/OR TO VISIBILITY
.  
 
MIZ047>049-052>055-059>063-066>070-074>076-081>083-220400-  
SOUTHEAST LOWER MICHIGAN  
 
CITY SKY/WX TMP DP RH WIND PRES REMARKS
 
ADRIAN CLOUDY 53 41 63 E9 30.13S  
ALMA FAIR 54 38 56 E7 30.13S  
ANN ARBOR MOCLDY 51 41 68 SE6 30.13R  
BAD AXE FAIR 48 38 66 CALM 30.17S  
CARO FAIR 49 36 61 E5 30.15F  
DETROIT CITY FAIR 52 38 58 E9 30.15F  
DETROIT CLOUDY 54 39 57 E6 30.15S  
FLINT FAIR 52 34 50 E9 30.14F  
GROSSE ILE CLOUDY 51 44 75 CALM 30.14S  
HILLSDALE FAIR 51 39 64 E13 30.10S  
HOWELL FAIR 54 32 42 E7 30.13R  
 
CITY SKY/WX TMP DP RH WIND PRES REMARKS
 
JACKSON FAIR 53 40 61 E10G16 30.11S  
LAMBERTVILLE CLOUDY 55 44 64 E5 30.13S  
LANSING FAIR 56 38 50 E9 30.12S  
LAPEER FAIR 52 36 55 E5 30.16F  
MASON FAIR 54 44 68 E9 30.12R  
MONROE FAIR 52 46 82 E3 30.13S  
MT. CLEMENS MOCLDY 52 39 63 NE10 30.14F  
PONTIAC CLOUDY 53 35 50 E8 30.13F  
PORT HOPE N/A 48 40 73 CALM 30.17S  
PORT HURON FAIR 48 37 66 CALM 30.18S  
TRI CITIES FAIR 52 37 56 E8 30.15S  
MIDLAND FAIR 51 40 66 E6 30.14F  
TROY FAIR 54 33 44 E7 30.17S  
SAGINAW HB FAIR 54 37 54 E6 30.14F  

 
MIZ043>046-050>051-056>058-064>065-071>073-077>080-220400-  
SOUTHWEST LOWER MICHIGAN  
 
CITY SKY/WX TMP DP RH WIND PRES REMARKS
 
BATTLE CREEK FAIR 56 38 50 E12G18 30.08R  
BENTON HARBOR CLOUDY 56 38 50 E20G35 29.99F  
BIG RAPIDS FAIR 55 32 40 E14G20 30.10S  
COLDWATER CLOUDY 53 40 61 E13G18 30.08S  
FREMONT FAIR 57 36 45 E10G16 30.07R  
HOLLAND MOCLDY 57 40 52 E16G24 30.04S  
GRAND RAPIDS CLOUDY 56 41 57 E12 30.08R  
IONIA FAIR 54 41 62 E7 30.09R  
KALAMAZOO FAIR 55 38 52 SE9 30.07S  
LUDINGTON FAIR 59 36 42 E12 30.06S  
MARSHALL MOCLDY 55 39 54 E10 30.09R  
MOUNT PLEASANT FAIR 53 37 54 NE6 30.13S  
MUSKEGON CLOUDY 59 40 49 E12G21 30.05S  
SOUTH HAVEN MOCLDY 56 37 47 E20G28 30.01F  

 
MIZ016>042-220400-  
NORTHERN LOWER MICHIGAN  
 
CITY SKY/WX TMP DP RH WIND PRES REMARKS
 
ALPENA FAIR 50 40 68 S5 30.18R  
BEAVER ISLAND FAIR 53 34 47 E7 30.14R  
BELLAIRE FAIR 58 35 41 SE3 30.14R  
CADILLAC FAIR 54 29 38 E12 30.11F  
CHARLEVOIX FAIR 60 34 37 E8 30.16S  
FRANKFORT FAIR 62 35 36 E6 30.09S  
GAYLORD FAIR 53 37 54 SE7 30.15R  
HARBOR SPRINGS FAIR 57 31 37 E5 30.16R  
HOUGHTON LAKE FAIR 51 30 44 E8 30.15S  
MANISTEE CLOUDY 59 35 40 E12G21 30.07F  
OSCODA FAIR 49 36 60 CALM 30.18R  
PELLSTON FAIR 56 35 45 SE5 30.16R  
ROGERS CITY FAIR 54 37 51 SE7 30.18R  
TRAVERSE CITY FAIR 58 36 43 SE6 30.11R  

 
MIZ007>008-015-220400-  
EASTERN UPPER MICHIGAN  
 
CITY SKY/WX TMP DP RH WIND PRES REMARKS
 
KINROSS FAIR 51 37 58 SE3 30.17R  
MACKINAC ISLAN FAIR 57 31 36 SE7 30.16R  
NEWBERRY FAIR 50 36 58 E5 30.16R  
S. S. MARIE FAIR 53 39 59 SW3 30.15R  
MUNISING N/A 45 39 79 CALM 30.12R  

 
MIZ004>006-011>014-085-220400-  
CENTRAL UPPER MICHIGAN  
 
CITY SKY/WX TMP DP RH WIND PRES REMARKS
 
MANISTIQUE FAIR 55 34 43 E6 30.12R  
ESCANABA CLOUDY 56 38 50 E8 30.11R  
MENOMINEE MOCLDY 54 38 54 E12 30.07F  
SAWYER-GWINN FAIR 51 33 49 E6 30.11R  

 
MIZ001>003-009>011-084-220400-  
WESTERN UPPER MICHIGAN  
 
CITY SKY/WX TMP DP RH WIND PRES REMARKS
 
IRON MOUNTAIN CLOUDY 56 32 40 E8 30.07S  
HOUGHTON FAIR 47 32 56 E10 30.10S  
COPPER HARBOR N/A 54 33 45 S8 30.12R  
IRONWOOD CLOUDY 58 34 40 E15G22 30.00F  

 
 
ABBREVIATIONS USED IN REMARKS  
TC - TEMPERATURE IN CELSIUS  
WCI - WIND CHILL INDEX  
HX - HEAT INDEX  
VSB - VISIBILITY  
 
 
 
CLICK HERE TO GO TO PREVIOUS BULLETINS.

The Nexlab MI Page Main Text Page